Location: *
(44.1392°N, 4.8079°E)
Time: 16:32:55
(UTC+00:00)

deb Agena D - Pass Details

Date: 31 January 2022
Orbit: 936 x 1065 km, 100.4° (Epoch: 21 May)

Event Time Altitude Azimuth Distance (km) Brightness Sun altitude
Exits shadow 19:36:36 14° 12° (NNE) 2,584 ? -30.1°
Drops below altitude 10° 19:37:32 10° 6° (N) 2,852 ? -30.3°
Sets 19:40:32 0° 354° (N) 3,826 ? -30.8°
